GORIZONT 3 [-]

Last updated on Oct. 25, 2020, 5:56 a.m. UTC

1 11648U 79105A   20297.99411313 -.00000334  00000-0  00000-0 0  9994
2 11648  10.7797 310.2970 0011199 200.7103 338.9526  1.00324823101808
UTC
Height (km)
Latitude
Longitude
Inclination
Orbital Period
UTC large
Height (km)
Speed (km/s)
/
Latitude / Longitude
Inclination (degrees)
Orbital Period (minutes)
Azimuth
Elevation
Range (km)
Doppler Factor
iOS Compass Heading
iOS Angle

Next 30 passes for location: Hong Kong

Rise time Rise Azimuth (degrees) Set time Set Azimuth (degrees) Duration Max altitude (degrees)

No matching passes for this satellites